Miscellaneous Local Product
Issued by NWS Hastings, NE

Home | Current Version | Previous Version | Text Only | Print | Product List | Glossary Off
Versions: 1 2 3 4 5 6 7 8 9 10 11 12 13 14 15 16 17 18 19 20 21 22 23 24 25 26 27 28 29 30 31 32 33 34 35 36 37 38 39 40 41 42 43 44 45 46 47 48 49 50

000
AXUS43 KGID 280002
MISGRI

GID CWA HOURLY WEATHER ROUNDUP
NATIONAL WEATHER SERVICE HASTINGS NE
700 PM CDT MON MAR 27 2017

NOTE: "FAIR" INDICATES FEW OR NO CLOUDS BELOW 12,000 FEET WITH NO
SIGNIFICANT WEATHER AND/OR OBSTRUCTIONS TO VISIBILITY.

...SOUTH CENTRAL NEBRASKA...

CITY           SKY/WX    TMP DP  RH WIND       PRES   REMARKS
GRAND ISLAND   CLEAR     54  40  59 E5        29.93R
HASTINGS       CLEAR     50  42  74 SE7       29.94R
KEARNEY        CLEAR     55  41  58 SE12      29.92S
ORD            CLEAR     57  40  52 SE7       29.89S
YORK           CLEAR     52  41  66 CALM      29.94R
AURORA         CLEAR     53  42  67 E5        29.93R
LEXINGTON      SUNNY     59  42  53 SE10      29.89S
HOLDREGE       SUNNY     57  42  56 SE13      29.90S
HEBRON         CLOUDY    50  43  75 E3        29.95R

...NEBRASKA PANHANDLE...

CITY           SKY/WX    TMP DP  RH WIND       PRES   REMARKS
CHADRON        SUNNY     64  29  26 NE9       29.79R
ALLIANCE       CLOUDY    61  30  31 S8        29.79S
SCOTTSBLUFF    CLOUDY    62  31  31 SE6       29.78S
SIDNEY         CLOUDY    61  31  32 SE14      29.81F

...WESTERN AND NORTH CENTRAL NEBRASKA...

CITY           SKY/WX    TMP DP  RH WIND       PRES   REMARKS
VALENTINE      CLOUDY    59  37  44 SE9       29.85S
AINSWORTH      CLOUDY    57  40  53 SE6       29.87S
ONEILL         CLEAR     58  38  46 SE7       29.91R
BROKEN BOW     SUNNY     57  41  55 SE10      29.89S
IMPERIAL       SUNNY     63  35  35 SE13      29.83F
NORTH PLATTE   SUNNY     62  42  47 SE10      29.85R
MCCOOK         SUNNY     61  45  55 SE16      29.86R

...EASTERN NEBRASKA...

CITY           SKY/WX    TMP DP  RH WIND       PRES   REMARKS
NORFOLK        CLEAR     56  37  49 SE7       29.92R
SO SIOUX CITY  CLEAR     55  40  56 E10       29.95R
TEKAMAH        CLOUDY    52  41  66 S5        29.96R
COLUMBUS       CLEAR     54  41  62 E9        29.94S
ALBION         CLEAR     58  38  47 SE3       29.92R
OMAHA EPPLEY   CLOUDY    51  40  65 CALM      29.96S
OFFUTT AFB     CLOUDY    50  40  67 CALM      29.96S
MILLARD        CLOUDY    51  42  69 CALM      29.97R
LINCOLN        CLEAR     52  41  66 E12       29.96S
NEBRASKA CITY  CLOUDY    47  38  71 N7        29.96S
BEATRICE       CLOUDY    53  43  68 NE6       29.94R
FALLS CITY     CLOUDY    51  43  74 N7        29.94S

...NORTHERN KANSAS...

CITY           SKY/WX    TMP DP  RH WIND       PRES   REMARKS
GOODLAND       CLOUDY    62  37  39 S10       29.84F
HILL CITY      CLOUDY    60  44  55 E10       29.90R
NORTON         CLEAR     59  37  44 E7        29.88F
PHILLIPSBURG   SUNNY     59  39  47 E10       29.91R
HAYS             N/A     61  41  47 E7        29.90R
RUSSELL        CLOUDY    58  42  55 E13       29.89S
CONCORDIA      CLOUDY    53  46  77 E5        29.93S
SALINA         CLOUDY    55  46  71 E6        29.94S
TOPEKA         CLOUDY    55  48  77 N7        29.94R



USA.gov is the U.S. government's official web portal to all federal, state and local government web resources and services.